STARLINK-1917

Last updated on Tue Nov 24 2020 00:02:02 GMT+0000 (Coordinated Universal Time)

1 46767U 20074AE 20328.58334491 -.01090611 00000-0 -17826-1 0 9990 2 46767 53.0556 13.5866 0001112 67.2849 294.3743 15.54693473 1859

Satellite not in orbit